STARLINK-33650, 63321

Orbit data source: Space-Track

STARLINK-33650, 63321 is a payload satellite owned by SpaceX/Seattle (US) in LEO that was launched on Tue, 18 Mar 2025 UTC via an FALCON 9 launch vehicle from the Air Force Eastern Test Range (AFETR). Payload-class satellites include a variety of spacecraft equipped with specific instruments for various scientific and technological missions. These include communications satellites like Starlink; space stations such as the ISS; scientific satellites like the Hubble; Earth observation satellites from companies like Planet Labs, Umbra, and HawkEye 360; GPS; miniature CubeSats for education and research; and military/defense satellites.

Loading next visibility...
Identifier
63321, 2025-057Q
Orbit
LEO
Last TLE update
15 hours ago
Origin
Manufacturer
SpaceX/Seattle
Mission
Operational Commercial Communications
Bus & Motor
STARLINK V2MO, Unknown motor
Mass
575 kg wet, ~530 kg dry
Launch date (UTC)
2025-03-18 (4 months ago)
Launch vehicle
FALCON 9
Launch site
Air Force Eastern Test Range (AFETR)
Object type
Payload
Rocket body
Debris
Shape & HBR
Box + 1 Pan, 29 m
Radar Cross Section
41.120 m², Large (>1 m²)

Expand to show TLE details & history

TLE from 15 hours ago
0 STARLINK-33650
1 63321U 25057Q   25183.21798640  .00014357  00000-0  53024-3 0  9997
2 63321  43.0046   5.1553 0001423 264.1379  95.9311 15.27580461 17437
Epoch: 2025-07-02T05:13Z
TLE epoch observation values (Epoch: 2025-07-02T05:13:54.024Z)
Latitude
-0°
Longitude
6.17795°
Altitude
482.925 km
Speed
7.626 km/s
True Right ascension
00h 20m 37s
True Declination
0° 00' 00"
Sunlit
Object was in daylight at epoch
Visualization orbit readout
Latitude
-19.57876°
Longitude
-155.07483°
Altitude
486.787 km
Speed
7.623 km/s
Apparent Right ascension
16h 12m 50s
Apparent Declination
-39° 35' 05"
Sunlit
Object is in daylight
Visualization observer readout
Local Sidereal Time
08:00:00
Azimuth
108.671° ESE
Elevation
-47.106°
Doppler factor
1
Orbital elements
Apogee altitude
485.969 km
Perigee altitude
484.015 km
Semi-major axis
6,863.129 km
Eccentricity
0.00014
Inclination
43.0046°
RAAN
5.1553°
Arg. of periapsis
264.1379°
True anomaly
Unknown
Mean anomaly
95.9311°
Eccentric anomaly
Unknown
Mean motion
3.81733 °/min
Orbital period
94.31 mins
BSTAR
0.00053024
Loading maneuver chart data...
Loading SW <> Apogee altitude chart data...
Loading historical data...
Loading historical data...
Loading historical data...
Loading historical data...
Loading historical data...
Loading historical data...
Loading historical data...

STARLINK-33650 Visibility forecast

Observer location: undefined°, undefined°

Span
Click to sort rows by Start time (UTC) header in descending order
Start Az.
Max El. time (UTC)
Max El. Az.
Max El.
End time (UTC)
End Az.
6 mins2025-07-02 21:24:59.794Z270.517° WNW2025-07-02 21:27:59.794Z207.231° SW26.81°2025-07-02 21:30:59.794Z150.301° SSE
4 mins2025-07-03 14:22:59.794Z173.795° S2025-07-03 14:23:59.794Z154.493° SSE17.666°2025-07-03 14:26:59.794Z99.664° ESE
5 mins2025-07-03 16:00:59.794Z243.743° WSW2025-07-03 16:02:59.794Z173.909° S44.539°2025-07-03 16:05:59.794Z73.623° E
5 mins2025-07-03 17:39:59.794Z288.041° WNW2025-07-03 17:41:59.794Z347.107° N38.097°2025-07-03 17:44:59.794Z71.149° E
6 mins2025-07-03 19:18:59.794Z292.178° WNW2025-07-03 19:20:59.794Z328.069° NNW42.703°2025-07-03 19:24:59.794Z100.759° ESE
|